Regional Weather Roundup
Issued by NWS

Home | Current Version | Previous Version | Text Only | Print | Product List | Glossary On
Versions: 1 2 3 4 5 6 7 8 9 10 11 12 13 14 15 16 17 18 19 20 21 22 23 24 25 26 27 28 29 30 31 32 33 34 35 36 37 38 39 40 41 42 43 44 45 46 47 48 49 50
000
ASUS45 KTFX 281319
RWRMT
MONTANA HOURLY WEATHER ROUNDUP
NATIONAL WEATHER SERVICE GREAT FALLS MT
719 AM MDT MON JUL 28 2014

NOTE: "FAIR" INDICATES FEW OR NO CLOUDS BELOW 12000 FEET WITH NO
SIGNIFICANT WEATHER AND/OR OBSTRUCTIONS TO VISIBILITY.

* THESE STATIONS ARE NOT UNDER NWS QUALITY CONTROL. THEY DO NOT
   REPORT WEATHER SUCH AS PRECIPITATION OR FOG.

MTZ001>007-043-281400-
WEST OF THE DIVIDE
CITY           SKY/WX    TMP DP  RH WIND       PRES   REMARKS
KALISPELL      PTCLDY    54  48  80 N9        30.19R
MISSOULA       PTCLDY    57  43  60 CALM      30.21R
BUTTE          MOCLDY    50  36  59 CALM      30.34R
MULLAN PASS    PTCLDY    66  36  33 CALM      30.34R
* ESSEX        N/A       52  40  64 S9G16      N/A
* LINCOLN      N/A       43  40  89 N/A        N/A
* LOOKOUT PASS N/A       59  44  58 NE1        N/A
* POLSON       N/A       58  44  60 S1         N/A
* RONAN APT    MOCLDY    55  48  77 N/A        N/A
* SEELEY LAKE  N/A       44  38  80 N/A        N/A
* THOMP F APT  PTCLDY    65  29  26 NW2G9      N/A
* YAAK HILL    N/A       57  48  72 N1         N/A
$$

MTZ008-052>055-281400-
SOUTHWEST MONTANA
CITY           SKY/WX    TMP DP  RH WIND       PRES   REMARKS
BOZEMAN        PTCLDY    54  45  72 CALM      30.29R
DILLON         MOCLDY    55  34  45 SE5       30.30S
W YELLOWSTONE  CLOUDY    46  37  71 NW3       30.43R
* THREE FORKS  PTCLDY   N/A N/A N/A N/A        N/A
* BOULDER HILL N/A       59  32  36 S7         N/A
* RAYNOLDS PAS N/A       55  -1  10 SE1G6      N/A
* WHITEHALL    N/A       58  34  41 NW3G10     N/A
* WISE RIVER   N/A       46  36  68 W2         N/A
$$

MTZ009>010-012-014-046-048-049-054-281400-
EAST SLOPES AND CENTRAL MONTANA
CITY           SKY/WX    TMP DP  RH WIND       PRES   REMARKS
CUT BANK       MOCLDY    57  45  64 NE3       30.26S
GREAT FALLS    MOCLDY    63  45  52 CALM      30.24R
HELENA         PTCLDY    61  39  44 CALM      30.26R
MALMSTROM AFB  PTCLDY    57  43  60 S2        30.25R
* CONRAD       MOCLDY    52  52 100 N/A        N/A
* DEARBORN     N/A       55  40  57 N/A        N/A
* EAST GLACIER N/A       48  40  74 N4         N/A
* ROGERS PASS  N/A       59  38  46 NW2        N/A
* SAINT MARY   N/A       38  36  93 SE3        N/A
* SWEET GRASS  N/A       61  43  52 S17        N/A
* WHITE SULPH  N/A       56  40  55 E7G13      N/A
$$

MTZ011-013-016-021-035-040-045-047-050-051-281400-
NORTH CENTRAL MONTANA
CITY           SKY/WX    TMP DP  RH WIND       PRES   REMARKS
HAVRE          CLEAR     55  46  72 CALM      30.23R
LEWISTOWN      CLEAR     63  43  48 SE10      30.29S
* CHINOOK      CLEAR     57  48  72 E9        30.24R
* FORT BENTON  PTCLDY    66  43  43 NE6       30.24R
* CHESTER      N/A       63  44  50 SE2        N/A
* DENTON       N/A       62  43  50 SE8        N/A
* JUDITH GAP   N/A       51  43  74 N/A        N/A
* LOMA         N/A       66  44  45 E12        N/A
$$

MTZ017>020-022>027-061-062-281400-
NORTHEAST MONTANA
CITY           SKY/WX    TMP DP  RH WIND       PRES   REMARKS
GLASGOW        CLEAR     57  52  83 E9        30.28R
GLENDIVE       CLEAR     59  52  78 CALM      30.33S
JORDAN         CLEAR     54  41  62 CALM      30.28S
SIDNEY         PTCLDY    57  52  83 CALM      30.33S
WOLF POINT     CLEAR     55  50  83 E7        30.30R
* BEAVER HILL  N/A       56  52  87 SE11       N/A
* CIRCLE       N/A       58  54  87 N/A        N/A
* LINDSAY DVD  N/A       54  52  93 E3         N/A
* NAVAJO       N/A       56  51  83 E2         N/A
$$

MTZ028>042-056>058-281400-
SOUTHCENTRAL AND SOUTHEAST MONTANA
CITY           SKY/WX    TMP DP  RH WIND       PRES   REMARKS
BAKER          CLEAR     55  52  90 SE8       30.34R
BILLINGS       FAIR      63  43  48 CALM      30.28R
LIVINGSTON     PTCLDY    54  39  57 NW3       30.33R
MILES CITY     CLEAR     63  54  73 E3        30.29R
* LAUREL APT   CLEAR     59  41  51 N/A        N/A
* ROUNDUP APT  PTCLDY    61  41  48 N/A        N/A
* ALZADA       N/A       53  51  93 E4         N/A
* HYSHAM       N/A       66  45  47 E2         N/A
* REED POINT   N/A       50  45  83 NW2        N/A
* ROSCOE HILL  N/A       60  37  43 SW2        N/A
$$

REGIONAL REPORTS...DAKOTAS
CITY           SKY/WX    TMP DP  RH WIND       PRES   REMARKS
WILLISTON      CLEAR     59  54  84 CALM      30.32S
DICKINSON      CLEAR     54  50  86 S6        30.33S
CROSBY         N/A       57  57 100 CALM      30.34R
TIOGA          CLOUDY    59  59 100 SW3       30.36S
WATFORD CITY   CLEAR     55  54  96 CALM      30.32R
BISMARCK       CLEAR     54  50  86 W3        30.35S
GRAND FORKS    CLOUDY    61  55  81 NW5       30.27R
FARGO          CLOUDY    61  55  81 NW5       30.27R
BUFFALO SD     CLEAR     55  52  90 E5        30.29R
RAPID CITY     MOCLDY    57  54  90 S6        30.35S
$$

REGIONAL REPORTS...WYOMING/IDAHO/WASHINGTON
CITY           SKY/WX    TMP DP  RH WIND       PRES   REMARKS
GILLETTE       CLEAR     61  48  62 SE13      30.35R
SHERIDAN       CLEAR     54  46  74 CALM      30.30R
YELLOWSTONE LA PTCLDY    43  36  76 CALM      30.53R
SALMON         MOCLDY    55  41  59 CALM      30.23R
MULLAN PASS    PTCLDY    66  36  33 CALM      30.34S
SAND POINT     CLOUDY    59  52  78 SW3       30.16S
SPOKANE        MOCLDY    70  45  41 E10       30.09F
$$

REGIONAL REPORTS...ALBERTA
CITY           SKY/WX    TMP DP  RH WIND       PRES   REMARKS
CALGARY        PTCLDY    54  46  74 N3        30.26R
LETHBRIDGE     MOCLDY    54  52  93 SW6       30.24R
MEDICINE HAT   PTCLDY    59  52  78 NE3       30.23R
EDMONTON       FAIR      54  52  93 CALM      30.22R
WATERTON GATE  N/A       50  45  83 W1         N/A
CARDSTON       N/A       52  45  77 SW6        N/A
MILK RIVER     N/A       63  45  52 S6         N/A
$$

REGIONAL REPORTS...SASKATCHEWAN
CITY           SKY/WX    TMP DP  RH WIND       PRES   REMARKS
SWIFT CURRENT  CLEAR     55  52  90 S7        30.29R
MOOSE JAW      FOG       57  54  90 E5        30.29S
REGINA         PTCLDY    57  54  90 SE6       30.31S
VAL MARIE      N/A       54  52  93 E5         N/A
ASSINIBOIA     N/A       57  52  83 SE2        N/A
CORONACH       N/A       52  50  93 SW1        N/A

$$



USA.gov is the U.S. government's official web portal to all federal, state and local government web resources and services.